Weather in Yakshanga

Russia / Kostroma Oblast     58°21′29″N   45°55′11″E
temp.,
°C
wind,
m/s
gust,
m/s
humid.,
%
clouds,
%
prec.,
mm/h
press.,
hPa
HPBL,
m
14 august, sun
sun1400:00+17se116999 0.0 102211
03:00+16s116991 0.0 102211
06:00+16ssw237492 0.0 102267
09:00+21w23617 0.0 1022703
12:00+23wnw235815 0.1 10221061
15:00+24wnw235469 0.6 10221463
18:00+21wnw12746 0.2 102240
21:00+16ene22810 0.2 102213
15 august, mon
mon1500:00+13ene11790 0.0 102311
03:00+12ene11790 0.0 102410
06:00+14ne12750 0.0 102461
09:00+20ene12510 0.0 1025459
12:00+24nne12380 0.0 10241275
15:00+25nne12370 0.0 10241585
18:00+22ne22600 0.0 102423
21:00+16e22685 0.0 102511
16 august, tue
tue1600:00+14se11750 0.0 102611
03:00+13s11785 0.0 102711
06:00+15se117425 0.0 102732
09:00+22sse1252100 0.0 1027384
12:00+25se224096 0.0 10261381
15:00+26se224050 0.0 10251838
18:00+22ese116292 0.0 102515
21:00+17se1274100 0.0 102511
17 august, wed
wed1700:00+16s1180100 0.0 102511
03:00+15sse1179100 0.0 102511
06:00+16se117723 0.0 102534
09:00+22sse12535 0.0 1024498
12:00+26se12411 0.0 10231614
15:00+26ese1139100 0.0 10231981
18:00+23e116013 0.0 102211
21:00+18ene11733 0.0 102311
18 august, thu
thu1800:00+16sse00805 0.0 102311
03:00+15ne22845 0.0 102413
06:00+17ene12790 0.0 102553
09:00+23ene23570 0.0 1025512
12:00+27e22455 0.0 10241648
15:00+27e2344100 0.0 10242173
18:00+22ene236497 0.0 102455
21:00+20ese277098 0.0 1025173